RCH11B KLAX-PANC

Flight info

Callsign RCH11B
Flight time N/A
Altitude 40000
Route SUMMR2 SCTRR/N0460F430 PYE J143 ENI FOT KYLLE B453 MDO WITTI5
Aircraft B762/H-SDE3FGHIM3RWXY/LB1

Departure

Time 2026-04-25 01:05
Airport Los Angeles International Airport (KLAX)

Arrival

Time N/A
Airport Ted Stevens Anchorage International Airport (PANC)
Time Latitude Longitude Altitude Speed Heading
2026-04-25 00:50 33.93541 -118.38045 108 ft 0 kts 79°
2026-04-25 00:58 33.93541 -118.38047 108 ft 2 kts 79°
2026-04-25 00:58 33.93538 -118.38064 108 ft 1 kts 79°
2026-04-25 00:59 33.93536 -118.38076 108 ft 2 kts 73°
2026-04-25 00:59 33.93530 -118.38092 108 ft 2 kts 57°
2026-04-25 00:59 33.93520 -118.38106 108 ft 2 kts 43°
2026-04-25 00:59 33.93509 -118.38117 109 ft 2 kts 30°
2026-04-25 01:00 33.93495 -118.38124 109 ft 2 kts 17°
2026-04-25 01:00 33.93481 -118.38128 109 ft 1 kts
2026-04-25 01:00 33.93475 -118.38128 109 ft 1 kts 358°
2026-04-25 01:00 33.93473 -118.38128 109 ft 0 kts 359°
2026-04-25 01:02 33.93486 -118.38128 109 ft 3 kts 359°
2026-04-25 01:02 33.93523 -118.38128 108 ft 9 kts
2026-04-25 01:03 33.93616 -118.38152 107 ft 16 kts 295°
2026-04-25 01:03 33.93617 -118.38243 107 ft 1 kts 270°
2026-04-25 01:03 33.93629 -118.38268 108 ft 0 kts 328°
2026-04-25 01:03 33.93639 -118.38273 107 ft 2 kts 340°
2026-04-25 01:04 33.93673 -118.38279 107 ft 7 kts 353°
2026-04-25 01:04 33.93720 -118.38318 107 ft 9 kts 291°
2026-04-25 01:04 33.93719 -118.38449 108 ft 32 kts 263°
2026-04-25 01:04 33.93671 -118.38927 112 ft 82 kts 263°
2026-04-25 01:05 33.93576 -118.39841 122 ft 134 kts 263°
2026-04-25 01:05 33.93444 -118.41116 323 ft 167 kts 262°
2026-04-25 01:05 33.93287 -118.42481 1154 ft 163 kts 262°
2026-04-25 01:05 33.93116 -118.43806 1896 ft 170 kts 260°
2026-04-25 01:06 33.92953 -118.45229 3146 ft 182 kts 262°
2026-04-25 01:06 33.92831 -118.46771 4245 ft 198 kts 264°
2026-04-25 01:06 33.92698 -118.48435 5341 ft 209 kts 265°
2026-04-25 01:06 33.92622 -118.50161 6673 ft 212 kts 268°
2026-04-25 01:07 33.92562 -118.51923 7459 ft 223 kts 267°
2026-04-25 01:07 33.92451 -118.53858 8038 ft 237 kts 266°
2026-04-25 01:07 33.92326 -118.55878 8610 ft 252 kts 265°
2026-04-25 01:07 33.92176 -118.58010 9406 ft 260 kts 265°
2026-04-25 01:08 33.92004 -118.60189 10119 ft 271 kts 264°
2026-04-25 01:08 33.91833 -118.62483 10920 ft 280 kts 266°
2026-04-25 01:08 33.91789 -118.64862 11570 ft 295 kts 269°
2026-04-25 01:08 33.91774 -118.67408 12111 ft 315 kts 269°
2026-04-25 01:09 33.91790 -118.70100 12687 ft 333 kts 270°
2026-04-25 01:09 33.91799 -118.72906 13796 ft 335 kts 269°
2026-04-25 01:09 33.91774 -118.75680 14815 ft 338 kts 268°
2026-04-25 01:09 33.91742 -118.78470 15847 ft 340 kts 269°
2026-04-25 01:10 33.91719 -118.81318 16865 ft 342 kts 269°
2026-04-25 01:10 33.91723 -118.84184 17876 ft 344 kts 271°
2026-04-25 01:10 33.91811 -118.87027 18837 ft 346 kts 271°
2026-04-25 01:10 33.91896 -118.89947 19757 ft 350 kts 271°
2026-04-25 01:11 33.91983 -118.92893 20676 ft 354 kts 271°
2026-04-25 01:11 33.92069 -118.95828 21573 ft 357 kts 271°
2026-04-25 01:11 33.92206 -118.98844 22429 ft 362 kts 275°
2026-04-25 01:11 33.92469 -119.00555 22915 ft 365 kts 282°
2026-04-25 01:12 33.93343 -119.03458 23765 ft 373 kts 292°
2026-04-25 01:12 33.94181 -119.05282 24316 ft 378 kts 296°
2026-04-25 01:12 33.95965 -119.08804 25344 ft 383 kts 296°
2026-04-25 01:12 33.97368 -119.11552 26111 ft 387 kts 296°
2026-04-25 01:13 33.98772 -119.14294 26861 ft 391 kts 296°
2026-04-25 01:13 34.00259 -119.16994 27565 ft 400 kts 302°
2026-04-25 01:13 34.02195 -119.19469 28311 ft 412 kts 311°
2026-04-25 01:13 34.04499 -119.21603 29019 ft 421 kts 317°
2026-04-25 01:14 34.06861 -119.23648 29716 ft 425 kts 316°
2026-04-25 01:14 34.09282 -119.25740 30380 ft 429 kts 316°
2026-04-25 01:14 34.11660 -119.27792 31035 ft 433 kts 316°
2026-04-25 01:14 34.14104 -119.29899 31748 ft 436 kts 316°
2026-04-25 01:15 34.16559 -119.32012 32635 ft 433 kts 316°
2026-04-25 01:15 34.18959 -119.34080 33520 ft 431 kts 315°
2026-04-25 01:15 34.20568 -119.35466 34079 ft 430 kts 315°
2026-04-25 01:15 34.23015 -119.37579 34927 ft 427 kts 315°
2026-04-25 01:16 34.26219 -119.40346 35950 ft 426 kts 314°
2026-04-25 01:16 34.27012 -119.41033 36200 ft 425 kts 314°